Time,TemperatureF,DewpointF,PressureIn,WindDirection,WindDirectionDegrees,WindSpeedMPH,WindSpeedGustMPH,Humidity,HourlyPrecipIn,Conditions,Clouds,dailyrainin,SoftwareType,DateUTC
2013-01-06 00:01:00,26.6,25.0,30.31,East,100,0.0,-999.0,94,-99.99,,,0.01,weatherlink.com 1.10,2013-01-06 08:01:00,
2013-01-06 00:16:00,26.6,25.0,30.30,East,100,0.0,-999.0,94,-99.99,,,0.00,weatherlink.com 1.10,2013-01-06 08:16:00,
2013-01-06 00:31:00,26.5,25.0,30.31,East,100,0.0,-999.0,94,-99.99,,,0.00,weatherlink.com 1.10,2013-01-06 08:31:00,
2013-01-06 00:46:00,26.5,25.0,30.32,East,100,0.0,-999.0,94,-99.99,,,0.00,weatherlink.com 1.10,2013-01-06 08:46:00,
2013-01-06 01:01:00,26.6,25.0,30.32,East,100,0.0,-999.0,94,-99.99,,,0.00,weatherlink.com 1.10,2013-01-06 09:01:00,
2013-01-06 01:16:00,26.7,25.0,30.31,East,100,0.0,-999.0,94,-99.99,,,0.00,weatherlink.com 1.10,2013-01-06 09:16:00,
2013-01-06 01:31:00,26.8,25.0,30.31,East,100,0.0,-999.0,94,-99.99,,,0.00,weatherlink.com 1.10,2013-01-06 09:31:00,
2013-01-06 02:01:00,26.8,25.0,30.31,East,100,0.0,-999.0,94,-99.99,,,0.00,weatherlink.com 1.10,2013-01-06 10:01:00,
2013-01-06 02:16:00,26.7,25.0,30.30,East,100,0.0,-999.0,94,-99.99,,,0.00,weatherlink.com 1.10,2013-01-06 10:16:00,
2013-01-06 02:31:00,26.8,25.0,30.31,East,100,0.0,-999.0,94,-99.99,,,0.00,weatherlink.com 1.10,2013-01-06 10:31:00,
2013-01-06 02:46:00,27.0,26.0,30.30,East,100,0.0,-999.0,94,-99.99,,,0.00,weatherlink.com 1.10,2013-01-06 10:46:00,
2013-01-06 03:01:00,27.3,26.0,30.29,East,100,0.0,-999.0,94,-99.99,,,0.00,weatherlink.com 1.10,2013-01-06 11:01:00,
2013-01-06 03:16:00,27.4,26.0,30.29,East,100,0.0,-999.0,94,-99.99,,,0.00,weatherlink.com 1.10,2013-01-06 11:16:00,
2013-01-06 03:31:00,27.2,26.0,30.29,East,100,0.0,-999.0,94,-99.99,,,0.00,weatherlink.com 1.10,2013-01-06 11:31:00,
2013-01-06 03:47:00,27.1,26.0,30.29,East,100,0.0,-999.0,94,-99.99,,,0.00,weatherlink.com 1.10,2013-01-06 11:47:00,
2013-01-06 04:02:00,27.1,26.0,30.29,East,100,0.0,-999.0,94,-99.99,,,0.00,weatherlink.com 1.10,2013-01-06 12:02:00,
2013-01-06 04:17:00,27.2,26.0,30.29,East,100,0.0,-999.0,94,-99.99,,,0.00,weatherlink.com 1.10,2013-01-06 12:17:00,
2013-01-06 04:32:00,27.3,26.0,30.29,East,100,0.0,-999.0,94,-99.99,,,0.00,weatherlink.com 1.10,2013-01-06 12:32:00,
2013-01-06 04:48:00,27.4,26.0,30.29,East,100,0.0,-999.0,94,-99.99,,,0.00,weatherlink.com 1.10,2013-01-06 12:48:00,
2013-01-06 05:02:00,27.6,26.0,30.29,East,100,0.0,-999.0,94,-99.99,,,0.00,weatherlink.com 1.10,2013-01-06 13:02:00,
2013-01-06 05:17:00,27.8,26.0,30.29,East,100,0.0,-999.0,94,-99.99,,,0.00,weatherlink.com 1.10,2013-01-06 13:17:00,
2013-01-06 05:32:00,27.9,26.0,30.29,East,100,0.0,-999.0,93,-99.99,,,0.00,weatherlink.com 1.10,2013-01-06 13:32:00,
2013-01-06 05:47:00,27.7,26.0,30.29,East,100,0.0,-999.0,93,-99.99,,,0.00,weatherlink.com 1.10,2013-01-06 13:47:00,
2013-01-06 06:02:00,27.8,26.0,30.29,East,100,0.0,-999.0,94,-99.99,,,0.00,weatherlink.com 1.10,2013-01-06 14:02:00,
2013-01-06 06:17:00,27.7,26.0,30.29,East,100,0.0,-999.0,94,-99.99,,,0.00,weatherlink.com 1.10,2013-01-06 14:17:00,
2013-01-06 06:32:00,27.5,26.0,30.29,East,100,0.0,-999.0,94,-99.99,,,0.00,weatherlink.com 1.10,2013-01-06 14:32:00,
2013-01-06 06:47:00,27.2,26.0,30.29,East,100,0.0,-999.0,94,-99.99,,,0.00,weatherlink.com 1.10,2013-01-06 14:47:00,
2013-01-06 07:02:00,27.3,26.0,30.29,East,100,0.0,-999.0,94,-99.99,,,0.00,weatherlink.com 1.10,2013-01-06 15:02:00,
2013-01-06 07:17:00,27.4,26.0,30.29,East,100,0.0,-999.0,95,-99.99,,,0.00,weatherlink.com 1.10,2013-01-06 15:17:00,
2013-01-06 07:32:00,27.5,26.0,30.28,East,100,0.0,-999.0,95,-99.99,,,0.00,weatherlink.com 1.10,2013-01-06 15:32:00,
2013-01-06 07:47:00,27.6,26.0,30.28,East,101,0.0,-999.0,94,-99.99,,,0.00,weatherlink.com 1.10,2013-01-06 15:47:00,
2013-01-06 08:02:00,27.7,26.0,30.28,SE,128,0.0,-999.0,93,-99.99,,,0.00,weatherlink.com 1.10,2013-01-06 16:02:00,
2013-01-06 08:17:00,28.1,26.0,30.29,ESE,115,0.0,-999.0,92,-99.99,,,0.00,weatherlink.com 1.10,2013-01-06 16:17:00,
2013-01-06 08:32:00,28.3,26.0,30.30,SSE,148,0.0,-999.0,92,-99.99,,,0.00,weatherlink.com 1.10,2013-01-06 16:32:00,
2013-01-06 08:47:00,28.4,26.0,30.30,SE,136,0.0,-999.0,91,-99.99,,,0.00,weatherlink.com 1.10,2013-01-06 16:47:00,
2013-01-06 09:02:00,28.3,26.0,30.30,ESE,113,0.0,-999.0,92,-99.99,,,0.00,weatherlink.com 1.10,2013-01-06 17:02:00,
2013-01-06 09:17:00,28.3,26.0,30.31,ESE,116,0.0,-999.0,92,-99.99,,,0.00,weatherlink.com 1.10,2013-01-06 17:17:00,
2013-01-06 09:32:00,28.2,27.0,30.30,East,93,0.0,-999.0,93,-99.99,,,0.00,weatherlink.com 1.10,2013-01-06 17:32:00,
2013-01-06 09:47:00,28.3,27.0,30.30,SE,142,0.0,-999.0,93,-99.99,,,0.00,weatherlink.com 1.10,2013-01-06 17:47:00,
2013-01-06 10:02:00,28.3,27.0,30.30,ENE,71,0.0,-999.0,93,-99.99,,,0.00,weatherlink.com 1.10,2013-01-06 18:02:00,
2013-01-06 10:17:00,28.5,27.0,30.30,ESE,113,0.0,-999.0,94,-99.99,,,0.00,weatherlink.com 1.10,2013-01-06 18:17:00,
2013-01-06 10:32:00,28.8,27.0,30.30,East,87,0.0,-999.0,93,-99.99,,,0.00,weatherlink.com 1.10,2013-01-06 18:32:00,
2013-01-06 10:47:00,29.0,27.0,30.30,East,85,0.0,-999.0,93,-99.99,,,0.00,weatherlink.com 1.10,2013-01-06 18:47:00,
2013-01-06 11:02:00,29.2,27.0,30.29,SE,138,0.0,-999.0,92,-99.99,,,0.00,weatherlink.com 1.10,2013-01-06 19:02:00,
2013-01-06 11:32:00,29.6,27.0,30.28,ESE,113,0.0,-999.0,91,-99.99,,,0.00,weatherlink.com 1.10,2013-01-06 19:32:00,
2013-01-06 11:47:00,29.7,27.0,30.27,ESE,112,0.0,-999.0,90,-99.99,,,0.00,weatherlink.com 1.10,2013-01-06 19:47:00,
2013-01-06 12:02:00,29.8,27.0,30.28,ESE,111,0.0,-999.0,89,-99.99,,,0.00,weatherlink.com 1.10,2013-01-06 20:02:00,
2013-01-06 12:17:00,30.0,27.0,30.28,ESE,111,0.0,-999.0,89,-99.99,,,0.00,weatherlink.com 1.10,2013-01-06 20:17:00,
2013-01-06 12:32:00,29.9,27.0,30.27,ESE,111,0.0,-999.0,89,-99.99,,,0.00,weatherlink.com 1.10,2013-01-06 20:32:00,
2013-01-06 12:47:00,29.9,27.0,30.27,ESE,111,0.0,-999.0,90,-99.99,,,0.00,weatherlink.com 1.10,2013-01-06 20:47:00,
2013-01-06 13:02:00,30.1,28.0,30.26,ESE,111,0.0,-999.0,90,-99.99,,,0.00,weatherlink.com 1.10,2013-01-06 21:02:00,
2013-01-06 13:17:00,30.3,28.0,30.26,East,80,0.0,-999.0,89,-99.99,,,0.00,weatherlink.com 1.10,2013-01-06 21:17:00,
2013-01-06 13:32:00,30.5,27.0,30.25,East,80,1.0,-999.0,88,-99.99,,,0.00,weatherlink.com 1.10,2013-01-06 21:32:00,
2013-01-06 13:47:00,30.6,27.0,30.25,East,80,0.0,-999.0,87,-99.99,,,0.00,weatherlink.com 1.10,2013-01-06 21:47:00,
2013-01-06 14:02:00,30.6,27.0,30.26,East,80,0.0,-999.0,87,-99.99,,,0.00,weatherlink.com 1.10,2013-01-06 22:02:00,
2013-01-06 14:17:00,30.8,27.0,30.26,East,80,0.0,-999.0,87,-99.99,,,0.00,weatherlink.com 1.10,2013-01-06 22:17:00,
2013-01-06 14:32:00,31.1,27.0,30.26,East,80,0.0,-999.0,86,-99.99,,,0.00,weatherlink.com 1.10,2013-01-06 22:32:00,
2013-01-06 14:47:00,31.2,28.0,30.26,East,80,0.0,-999.0,86,-99.99,,,0.00,weatherlink.com 1.10,2013-01-06 22:47:00,
2013-01-06 15:02:00,31.3,29.0,30.25,East,80,0.0,-999.0,89,-99.99,,,0.00,weatherlink.com 1.10,2013-01-06 23:02:00,
2013-01-06 15:32:00,31.4,29.0,30.25,East,80,0.0,-999.0,89,-99.99,,,0.00,weatherlink.com 1.10,2013-01-06 23:32:00,
2013-01-06 15:47:00,31.4,29.0,30.25,East,85,0.0,-999.0,89,-99.99,,,0.00,weatherlink.com 1.10,2013-01-06 23:47:00,
2013-01-06 16:02:00,31.3,29.0,30.25,East,85,0.0,-999.0,89,-99.99,,,0.00,weatherlink.com 1.10,2013-01-07 00:02:00,
2013-01-06 16:17:00,31.2,28.0,30.26,East,85,0.0,-999.0,89,-99.99,,,0.00,weatherlink.com 1.10,2013-01-07 00:17:00,
2013-01-06 16:32:00,31.1,29.0,30.25,East,85,0.0,-999.0,90,-99.99,,,0.00,weatherlink.com 1.10,2013-01-07 00:32:00,
2013-01-06 16:47:00,30.8,28.0,30.25,East,85,0.0,-999.0,90,-99.99,,,0.00,weatherlink.com 1.10,2013-01-07 00:47:00,
2013-01-06 17:03:00,30.1,28.0,30.25,East,85,0.0,-999.0,90,-99.99,,,0.00,weatherlink.com 1.10,2013-01-07 01:03:00,
2013-01-06 17:17:00,29.2,27.0,30.25,East,85,0.0,-999.0,91,-99.99,,,0.00,weatherlink.com 1.10,2013-01-07 01:17:00,
2013-01-06 17:32:00,28.5,27.0,30.25,East,85,0.0,-999.0,92,-99.99,,,0.00,weatherlink.com 1.10,2013-01-07 01:32:00,
2013-01-06 17:47:00,28.1,26.0,30.25,East,85,0.0,-999.0,93,-99.99,,,0.00,weatherlink.com 1.10,2013-01-07 01:47:00,
2013-01-06 18:02:00,26.7,25.0,30.25,East,85,0.0,-999.0,93,-99.99,,,0.00,weatherlink.com 1.10,2013-01-07 02:02:00,
2013-01-06 18:17:00,26.4,25.0,30.25,East,85,0.0,-999.0,93,-99.99,,,0.00,weatherlink.com 1.10,2013-01-07 02:17:00,
2013-01-06 18:32:00,26.0,24.0,30.26,East,85,0.0,-999.0,93,-99.99,,,0.00,weatherlink.com 1.10,2013-01-07 02:32:00,
2013-01-06 18:47:00,25.1,24.0,30.26,East,85,0.0,-999.0,94,-99.99,,,0.00,weatherlink.com 1.10,2013-01-07 02:47:00,
2013-01-06 19:02:00,25.1,24.0,30.25,East,85,0.0,-999.0,94,-99.99,,,0.00,weatherlink.com 1.10,2013-01-07 03:02:00,
2013-01-06 19:17:00,24.1,23.0,30.26,East,85,0.0,-999.0,94,-99.99,,,0.00,weatherlink.com 1.10,2013-01-07 03:17:00,
2013-01-06 19:32:00,23.7,22.0,30.26,East,85,0.0,-999.0,94,-99.99,,,0.00,weatherlink.com 1.10,2013-01-07 03:32:00,
2013-01-06 19:48:00,23.8,23.0,30.25,East,85,0.0,-999.0,95,-99.99,,,0.00,weatherlink.com 1.10,2013-01-07 03:48:00,
2013-01-06 20:03:00,23.2,22.0,30.26,East,85,0.0,-999.0,94,-99.99,,,0.00,weatherlink.com 1.10,2013-01-07 04:03:00,
2013-01-06 20:18:00,22.9,22.0,30.26,East,85,0.0,-999.0,95,-99.99,,,0.00,weatherlink.com 1.10,2013-01-07 04:18:00,
2013-01-06 20:33:00,23.0,22.0,30.25,East,85,0.0,-999.0,95,-99.99,,,0.00,weatherlink.com 1.10,2013-01-07 04:33:00,
2013-01-06 20:48:00,22.4,21.0,30.25,East,85,0.0,-999.0,95,-99.99,,,0.00,weatherlink.com 1.10,2013-01-07 04:48:00,
2013-01-06 21:03:00,21.4,20.0,30.25,East,85,0.0,-999.0,95,-99.99,,,0.00,weatherlink.com 1.10,2013-01-07 05:03:00,
2013-01-06 21:18:00,21.4,20.0,30.26,East,85,0.0,-999.0,95,-99.99,,,0.00,weatherlink.com 1.10,2013-01-07 05:18:00,
2013-01-06 21:33:00,21.7,21.0,30.26,East,85,0.0,-999.0,95,-99.99,,,0.00,weatherlink.com 1.10,2013-01-07 05:33:00,
2013-01-06 21:48:00,21.6,20.0,30.27,East,85,0.0,-999.0,95,-99.99,,,0.00,weatherlink.com 1.10,2013-01-07 05:48:00,
2013-01-06 22:03:00,21.9,21.0,30.26,East,85,0.0,-999.0,95,-99.99,,,0.00,weatherlink.com 1.10,2013-01-07 06:03:00,
2013-01-06 22:18:00,20.8,19.0,30.26,East,85,0.0,-999.0,94,-99.99,,,0.00,weatherlink.com 1.10,2013-01-07 06:18:00,
2013-01-06 22:33:00,19.9,18.0,30.26,East,85,0.0,-999.0,93,-99.99,,,0.00,weatherlink.com 1.10,2013-01-07 06:33:00,
2013-01-06 22:48:00,19.9,19.0,30.26,East,85,0.0,-999.0,95,-99.99,,,0.00,weatherlink.com 1.10,2013-01-07 06:48:00,
2013-01-06 23:03:00,19.8,18.0,30.26,East,85,0.0,-999.0,94,-99.99,,,0.00,weatherlink.com 1.10,2013-01-07 07:03:00,
2013-01-06 23:18:00,20.1,19.0,30.25,East,85,0.0,-999.0,95,-99.99,,,0.00,weatherlink.com 1.10,2013-01-07 07:18:00,
2013-01-06 23:33:00,20.1,19.0,30.24,East,85,0.0,-999.0,95,-99.99,,,0.00,weatherlink.com 1.10,2013-01-07 07:33:00,
2013-01-06 23:48:00,20.7,20.0,30.23,East,85,0.0,-999.0,95,-99.99,,,0.00,weatherlink.com 1.10,2013-01-07 07:48:00,